Location: *
(40.4444°N, 79.9917°W)
Time: 19:51:04
(UTC+00:00)

Daily predictions for brighter satellites

Satellite Brightness Start Highest point End
(mag) Time Altitude Azimuth Time Altitude Azimuth Time Altitude Azimuth
Cosmos 2016 Rocket 4.3 22:21:38 10° N 22:28:03 81° W 22:34:23 10° S
Cosmos 2084 4.5 22:25:37 10° NNW 22:29:16 26° NE 22:32:49 10° ESE
COBE Rocket 4.4 22:24:56 10° NNE 22:29:22 36° E 22:33:39 10° SSE
PSLV R/B 2.6 22:29:33 10° WSW 22:32:04 70° SSE 22:34:36 10° E
Cosmos 2227 Rocket 3.1 22:32:54 10° N 22:37:38 26° NE 22:42:18 10° ESE
Genesis I 3.2 22:33:46 10° SSW 22:37:46 80° ESE 22:41:47 10° NE
Cosmos 2297 Rocket 3.0 22:33:16 10° N 22:38:06 28° NE 22:42:56 10° ESE
CORIOLIS 4.2 22:34:59 10° SSE 22:40:15 59° ENE 22:45:35 10° N
Envisat 3.5 22:40:32 10° SE 22:45:10 37° ENE 22:49:48 10° N
Meteor 2-2 Rocket 4.4 22:39:29 10° S 22:45:12 55° E 22:50:51 10° NNE
YAOGAN 1 4.0 22:44:10 10° ESE 22:46:56 17° ENE 22:49:43 10° NNE
IRS-1C Rocket 4.3 22:44:17 10° SSE 22:49:33 80° WSW 22:54:52 10° NNW
Cosmos 2221 2.6 22:47:04 10° S 22:51:20 81° W 22:55:41 10° N
Okean-O 2.7 22:47:22 10° SSE 22:51:40 52° ENE 22:55:59 10° N
Meteor 1-27 4.3 22:50:49 10° S 22:56:27 88° W 23:02:12 10° N
Cosmos 1356 Rocket 3.8 22:53:45 10° SSE 22:57:36 39° E 23:01:31 10° NNE
Lacrosse 4 Rocket 2.5 22:59:36 10° SSE 23:02:52 23° ESE 23:04:41 17° ENE
USA 215 4.3 22:59:27 13° ENE 23:03:58 27° NNE 23:09:13 10° NW
SeaSat 1 2.4 22:59:57 10° SE 23:04:51 68° ENE 23:09:45 10° NNW
SKYMED 2 3.8 23:04:08 10° NNE 23:08:21 47° E 23:12:31 10° S
ERBS 3.0 23:06:25 10° SSW 23:09:27 34° SE 23:10:52 23° E
USA 229 DEB 3.6 23:03:01 10° SSW 23:09:31 80° ESE 23:16:21 10° NE
USA 229 3.6 23:03:08 10° SSW 23:09:37 80° ESE 23:16:26 10° NE
Meteor 2-3 Rocket 4.3 23:05:47 10° NNW 23:11:32 64° W 23:17:11 10° S
Cosmos 1697 Rocket 3.3 23:08:37 10° SSE 23:13:38 34° ESE 23:17:28 16° NE
NOSS 3-1 (A) 3.5 23:09:45 10° S 23:14:55 48° ESE 23:19:36 15° NE
NOSS 3-1 (C) 3.2 23:10:46 10° SSW 23:16:10 80° ESE 23:22:11 11° NE
Cosmos 1680 Rocket 4.3 23:14:30 10° SSE 23:18:58 30° E 23:21:28 20° ENE
Cosmos 1805 Rocket 3.4 23:15:57 10° N 23:20:20 78° E 23:24:42 10° S
CZ-4 R/B 1.6 23:17:46 10° SSE 23:21:48 48° ENE 23:25:47 10° N
ATLAS 5 CENTAUR R/B 2.5 23:17:36 10° NNW 23:23:23 57° NE 23:29:56 10° SE
Cosmos 1869 3.5 23:20:33 10° SSW 23:24:31 72° W 23:28:27 10° N
Ariane Rocket 4.2 23:29:01 22° NE 23:29:01 22° NE 23:32:11 10° NNE
Cosmos 1633 2.4 23:37:37 10° N 23:41:17 72° E 23:44:54 10° SSE
Cosmos 923 Rocket 3.9 23:37:35 10° S 23:42:46 68° ESE 23:46:27 19° NNE
NOAA 11 4.3 23:39:44 10° SE 23:44:54 47° ENE 23:50:04 10° N
CSL-04 Debris 4.1 23:45:26 10° SSE 23:50:55 80° ENE 23:56:26 10° NNW
Cosmos 1633 Rocket 2.9 23:46:43 10° N 23:51:07 71° E 23:55:30 10° SSE
Cosmos 1656 4.0 23:46:13 10° SSW 23:51:44 66° WNW 23:56:53 12° NNE
YAOGAN 6 3.2 23:51:24 10° S 23:54:50 53° W 23:58:16 10° NNW
NOSS 2-3 (C) 3.5 23:50:48 10° SSW 23:55:00 64° ESE 23:55:39 56° ENE
